TimeCDT,TemperatureF,Dew PointF,Humidity,Sea Level PressureIn,VisibilityMPH,Wind Direction,Wind SpeedMPH,Gust SpeedMPH,PrecipitationIn,Events,Conditions,WindDirDegrees,DateUTC
12:53 AM,51.1,46.0,83,30.17,10.0,North,11.5,-,N/A,,Overcast,10,2012-10-07 05:53:00
1:53 AM,51.1,45.0,80,30.18,10.0,North,11.5,18.4,N/A,,Overcast,10,2012-10-07 06:53:00
2:53 AM,51.1,45.0,80,30.18,10.0,North,9.2,-,N/A,,Overcast,10,2012-10-07 07:53:00
3:53 AM,51.1,45.0,80,30.18,10.0,North,10.4,-,N/A,,Overcast,10,2012-10-07 08:53:00
4:53 AM,50.0,44.1,80,30.20,10.0,NNE,10.4,-,N/A,,Overcast,20,2012-10-07 09:53:00
5:53 AM,50.0,44.1,80,30.21,10.0,North,9.2,-,N/A,,Overcast,10,2012-10-07 10:53:00
6:53 AM,48.9,44.1,83,30.22,10.0,NNE,12.7,-,N/A,,Overcast,20,2012-10-07 11:53:00
7:53 AM,50.0,44.1,80,30.24,10.0,North,11.5,17.3,N/A,,Overcast,10,2012-10-07 12:53:00
8:53 AM,53.1,44.1,71,30.25,10.0,NNE,10.4,19.6,N/A,,Overcast,30,2012-10-07 13:53:00
9:07 AM,53.6,44.6,72,30.23,10.0,North,11.5,18.4,N/A,,Overcast,10,2012-10-07 14:07:00
9:53 AM,54.0,44.1,69,30.26,10.0,NNE,11.5,-,N/A,,Overcast,20,2012-10-07 14:53:00
10:53 AM,55.9,45.0,67,30.27,10.0,NNE,11.5,-,N/A,,Overcast,30,2012-10-07 15:53:00
11:53 AM,57.0,45.0,64,30.25,10.0,North,12.7,18.4,N/A,,Overcast,360,2012-10-07 16:53:00
12:53 PM,57.9,45.0,62,30.23,10.0,NNE,13.8,-,N/A,,Overcast,20,2012-10-07 17:53:00
1:10 PM,59.0,44.6,59,30.19,10.0,NNE,12.7,-,N/A,,Mostly Cloudy,30,2012-10-07 18:10:00
1:53 PM,61.0,45.0,56,30.20,10.0,North,11.5,16.1,N/A,,Mostly Cloudy,360,2012-10-07 18:53:00
2:53 PM,62.1,44.1,52,30.18,10.0,ENE,10.4,17.3,N/A,,Clear,60,2012-10-07 19:53:00
3:53 PM,61.0,44.1,54,30.17,10.0,NNE,6.9,-,N/A,,Mostly Cloudy,30,2012-10-07 20:53:00
4:53 PM,61.0,42.1,50,30.16,10.0,NNE,12.7,18.4,N/A,,Mostly Cloudy,30,2012-10-07 21:53:00
5:53 PM,59.0,41.0,51,30.17,10.0,NNE,6.9,-,N/A,,Overcast,30,2012-10-07 22:53:00
6:53 PM,55.9,42.1,60,30.16,10.0,NNE,4.6,-,N/A,,Scattered Clouds,30,2012-10-07 23:53:00
7:53 PM,55.9,43.0,62,30.19,10.0,NNE,5.8,-,N/A,,Overcast,30,2012-10-08 00:53:00
8:53 PM,52.0,44.1,74,30.19,10.0,North,5.8,-,N/A,,Mostly Cloudy,10,2012-10-08 01:53:00
9:53 PM,55.0,45.0,69,30.19,10.0,ENE,5.8,-,N/A,,Overcast,70,2012-10-08 02:53:00
10:53 PM,55.0,45.0,69,30.18,10.0,NE,4.6,-,N/A,,Mostly Cloudy,50,2012-10-08 03:53:00
11:53 PM,54.0,46.0,75,30.18,10.0,NNE,3.5,-,N/A,,Overcast,30,2012-10-08 04:53:00